Other Public Products
Issued by NWS Grand Forks, ND

Home | Current Version | Previous Version | Graphics & Text | Print | Product List | Glossary On
Versions: 1 2 3 4 5 6 7 8 9 10 11 12 13 14 15 16 17 18 19 20 21 22 23 24 25 26 27 28 29 30 31 32 33 34 35 36 37 38 39 40 41 42 43 44 45 46 47 48 49 50
000
FPUS83 KFGF 191131
OPUFGF
PRAIRIE TO PINES WEATHER ROUNDUP
NATIONAL WEATHER SERVICE EASTERN NORTH DAKOTA/GRAND FORKS ND
500 AM CST MON FEB 19 2018

 **SATELLITE DATA USED TO AUGMENT SKY COVER AT AUTOMATED STATIONS**
 *****  WEATHER ACROSS EASTERN NORTH DAKOTA  *****

CITY           SKY/WX    TMP DP  RH WIND       PRES   REMARKS
GRAND FORKS    FAIR       2  -5  72 N15       30.20R WCI -17
GRND FORKS AFB FAIR       1  -7  68 N13       30.20R WCI -17
GRND FORKS NWS   N/A      1  -4  80 N10       30.17R WCI -15
BUXTON           N/A      2   0  92 N12         N/A  WCI -14
DEVILS LAKE    FAIR      -4  -9  79 N12       30.18R WCI -22
FARGO          CLOUDY     7   0  73 N22       30.14R WCI -14
WAHPETON ARPT  CLOUDY    10   1  67 N22G29    30.08R WCI  -9
$$

 *****  WEATHER ACROSS CENTRAL AND WESTERN NORTH DAKOTA  *****

CITY           SKY/WX    TMP DP  RH WIND       PRES   REMARKS
JAMESTOWN      FAIR       4  -3  73 N17       30.11S WCI -16
BISMARCK       FAIR       3  -7  63 N10       30.17R WCI -12
MINOT          FAIR      -8 -14  74 SW5       30.19R WCI -19
MINOT AFB      FAIR     -12 -19  71 W5        30.19R WCI -24
GARRISON         N/A     -5 -13  68 N6        30.17R WCI -18
WILLISTON      FAIR     -12 -19  71 CALM      30.18R
DICKINSON      FAIR       0  -7  72 N6        30.06S WCI -12
HETTINGER      FAIR       1  -7  68 N10       30.04F WCI -15
$$

 *****  OTHER OBSERVATIONS NORTHEAST NORTH DAKOTA  *****

CITY           SKY/WX    TMP DP  RH WIND       PRES   REMARKS
WALHALLA       FAIR      -6 -11  77 NW7       30.26R WCI -20
LANGDON        NOT AVBL
CAVALIER         N/A     -4  -9  77 N14       30.24R WCI -24
GRAFTON        NOT AVBL
CANDO          FAIR      -6 -13  71 N7        30.22R WCI -20
FORT TOTTEN      N/A     -3  -9  77 N2        29.95S
ROLLA          FAIR      -8 -15  71 NW7       30.18R WCI -22
RUGBY          NOT AVBL
 ***** THE ABOVE OBSERVATIONS ARE NON NWS ARE NOT QUALITY
        CONTROLLED AND MAY MIS-REPORT RAIN FOR SNOW...
$$

 *****  OTHER OBSERVATIONS SOUTHEAST NORTH DAKOTA *****

CITY           SKY/WX    TMP DP  RH WIND       PRES   REMARKS
COOPERSTOWN    FAIR       1  -4  78 N17       30.14F WCI -19
VALLEY CITY    NOT AVBL
OAKES            N/A      7  -4  61 N21G28    30.10R WCI -13
GWINNER          N/A      7   0  72 N21G26    30.09R WCI -13
SHEYENNE NWR     N/A      7  -3  65 N13       29.95S WCI  -9
BUFFALO          N/A      4  -5  67 SE15        N/A  WCI -14
WYNDMERE       NOT AVBL
 ***** THE ABOVE OBSERVATIONS ARE NON NWS ARE NOT QUALITY
       CONTROLLED AND MAY MIS-REPORT RAIN FOR SNOW...
$$

  *****  WEATHER ACROSS NORTHERN MINNESOTA  *****

CITY           SKY/WX    TMP DP  RH WIND       PRES   REMARKS
FLAG ISLAND    FAIR      -6 -11  77 N10       30.19R WCI -23
WARROAD        FAIR      -2  -8  78 N10       30.17S WCI -19
ROSEAU         NOT AVBL
HALLOCK        FAIR      -2  -9  71 N10       30.22R WCI -19
THF RVR FALLS  FAIR       1  -6  72 N12       30.16R WCI -16
HALSTAD        NOT AVBL
FOSSTON        FAIR       1  -2  85 N10       30.11R WCI -14
BAUDETTE       FAIR      -2  -6  83 N8        30.12S WCI -17
WASKISH        FAIR       3   0  85 NE7       30.11R WCI  -9
CROOKSTON      FAIR       1  -4  78 N8        30.19R WCI -12
$$
  *****  WEATHER ACROSS CENTRAL AND WEST MINNESOTA  *****

CITY           SKY/WX    TMP DP  RH WIND       PRES   REMARKS
BEMIDJI        MOCLDY     3  -1  81 N9G16     30.06R WCI -11
PARK RAPIDS    CLOUDY     6   0  76 N10       29.98F WCI  -9
WADENA         CLOUDY     7   1  78 N14       29.99R WCI -10
DETROIT LAKES  FAIR       9   3  78 N6        30.07R WCI  -1
MOORHEAD       FAIR       7   0  72 N18       30.13R WCI -12
FERGUS FALLS   CLOUDY     9   1  72 N14       30.04R WCI  -8
ELBOW LAKE     CLOUDY    11   5  76 NE15      29.99S WCI  -5
MORRIS MN      LGT SNOW  12   7  79 N15       29.98R WCI  -4
STAPLES        CLOUDY     9   1  72 N9        29.98R WCI  -5
WHEATON        FLURRIES   9   3  78 N16       30.05R WCI  -9
$$
  *****  WEATHER ELSEWHERE ACROSS MINNESOTA  *****

CITY           SKY/WX    TMP DP  RH WIND       PRES   REMARKS
DULUTH         MOCLDY    11   5  77 N13       29.93S WCI  -4
INTRNTL FALLS  FAIR       3  -1  83 NE6       30.11F WCI  -8
ELY            FAIR       0  -4  85 NE5       30.02S WCI -10
CLOQUET        MOCLDY     9   3  78 N10G18    29.94S WCI  -6
BRAINERD       CLOUDY    10   2  69 N15       29.95S WCI  -7
HIBBING        CLOUDY     3  -2  79 N10       29.99S WCI -12
ALEXANDRIA     CLOUDY    12   6  77 N16       29.95R WCI  -5
SAINT CLOUD    LGT SNOW  13   9  84 N14       29.89S FOG     WCI  -2
MINNEAPOLIS    CLOUDY    23  19  85 N21G26    29.82R WCI   8
$$

  *****  WEATHER ACROSS SOUTH DAKOTA  *****

CITY           SKY/WX    TMP DP  RH WIND       PRES   REMARKS
SIOUX FALLS    FRZ DRZL  16  10  77 N18G26    29.84S WCI   0
BROOKINGS      CLOUDY    12   7  80 N20G25    29.88R WCI  -6
WATERTOWN      CLOUDY    10   5  80 NE18      29.91S WCI  -8
HURON          CLOUDY    11   6  81 N20G31    30.00R WCI  -7
SISSETON         N/A      9   4  80 N21       30.03R WCI -11
ABERDEEN       LGT SNOW   8   3  80 N20G29    30.08S WCI -11
MITCHELL       CLOUDY    14   8  77 N23G29    29.95R WCI  -5
PIERRE         LGT SNOW   8   4  83 N21       30.04F FOG     WCI -12
MOBRIDGE       LGT SNOW   9   2  73 N14       30.06S WCI  -7
RAPID CITY     LGT SNOW   2  -2  83 N15       29.98F FOG     WCI -17
$$

  *****  SOME WEATHER IN NEARBY STATES *****

CITY           SKY/WX    TMP DP  RH WIND       PRES   REMARKS
GLASGOW MT     CLOUDY    -4 -10  75 N8        30.12S WCI -19
GREAT FALLS MT LGT SNOW  -4  -9  79 NW5       30.01R WCI -15
CHEYENNE WY    LGT SNOW   3   1  91 N8        29.64R FOG     WCI -10
SCOTTSBLUFF NE LGT SNOW   8   3  80 N12       29.83S WCI  -7
OMAHA NE       FRZ RAIN  31  29  92 N25G31    29.66R FOG     WCI  17
DES MOINES IA  DRIZZLE   44  42  93 SE10      29.65F FOG
DAVENPORT IA   FAIR      41  37  86 S10       29.79R
CHICAGO IL     CLOUDY    39  36  89 S5        29.86R
EAU CLAIRE WI  CLOUDY    29  25  85 NE10      29.78S WCI  20
LA CROSSE WI   FAIR      33  29  85 CALM      29.74F
$$

  *****  SOME NATIONAL WEATHER *****

CITY           SKY/WX    TMP DP  RH WIND       PRES   REMARKS
LA GUARDIA NY  MOCLDY    37  31  78 S3        30.52R
RALEIGH NC     RAIN      41  39  93 CALM      30.44R FOG
ATLANTA GA     DRZL/FOG  60  60 100 E7        30.30R VSB 1/2
NEW ORLEANS LA FAIR      65  65 100 SE6       30.12R
OKLAHOMA CITY  CLOUDY    63  58  83 S24G38    29.72R
ALBUQUERQUE NM CLOUDY    48  33  56 S14       29.72F
SALT LAKE CITY SNOW      31  28  89 N16       29.44F VSB 1/2 WCI  20
LOS ANGELES CA MOCLDY    53  41  63 NW7       29.82F
BOISE ID       FAIR      21  16  81 CALM      29.66S
SEATTLE WA     CLOUDY    31  15  52 N12       30.04R WCI  22
$$

*** WEATHER ACROSS MANITOBA...SASKATCHEWAN AND ONTARIO ***
                ***ONTARIO***

CITY           SKY/WX    TMP DP  RH WIND       PRES   REMARKS
GERALDTON      PTCLDY     0  -4  85 N6        30.06S WCI -12
THUNDER BAY    PTCLDY     1   0  92 NW3       30.09R
SIOUX LOOKOUT  CRYSTALS  -8 -13  77 N5        30.16  WCI -19
TORONTO        PTCLDY    27  23  86 VRB2      30.11R
BIG TROUT LK   CLEAR    -42 -49  66 CALM      30.30R HAZE
PICKLE LAKE    PTCLDY   -22 -26  83 NW5       30.19  WCI -36
DRYDEN         MOCLDY    -6 -11  77 N7        30.14R WCI -20
KENORA         PTCLDY    -8 -13  77 N7        30.15S WCI -22
$$
                *** MANITOBA***

CITY           SKY/WX    TMP DP  RH WIND       PRES   REMARKS
BRANDON        CLEAR    -22 -27  76 W3        30.23R
DAUPHIN        CLEAR    -24 -29  76 W8        30.23F WCI -43
ISLAND LAKE    CLEAR    -42 -51  60 SE2       30.30R
PILOT MOUND      N/A     -9 -15  77 N6          N/A  WCI -23
THE PAS        CLEAR    -26 -31  75 S5        30.21R WCI -40
THOMPSON       CLEAR    -44 -51  66 CALM      30.21S
WINNIPEG       MOCLDY   -11 -17  77 N8        30.26F WCI -28
LYNN LAKE      CLEAR    -29 -36  68 SW8       30.02F WCI -50
CHURCHILL      CLEAR    -31 -42  56 W12       30.14S WCI -56
GILLAM         CLEAR    -35 -44  61 SW5       30.22S WCI -50
$$
                ***SASKATCHEWAN***

CITY           SKY/WX    TMP DP  RH WIND       PRES   REMARKS
ESTEVAN        CLOUDY   -17 -20  83 W7        30.15S WCI -33
KINDERSLEY     CLEAR    -18 -22  83 SW8       30.09F WCI -37
LLOYDMINSTER   CLOUDY    -9 -15  77 W12       30.04S WCI -29
PRINCE ALBERT  CRYSTALS -31 -38  68 N2        30.15S
REGINA         PTCLDY   -18 -24  76 S7        30.14F WCI -35
YORKTON        FLURRIES  -8 -11  84 W7        30.15R WC



USA.gov is the U.S. government's official web portal to all federal, state and local government web resources and services.